User: anonymous   Login
Location: Bonny Doon Airfield
(37.0704°N, 122.1252°W)
Time: 13:47:26
(UTC-08:00)
Language:

BREEZE M DEB (TANK) - Orbit

View from above orbital plane
View from above orbital plane
View from above satellite
View from above satellite

Ground track
Ground track

The orbit data is extracted from the following two-line orbital elements,

1 33437U 08057B   14330.03194605  .00001839  00000-0  56749-3 0  1288
2 33437 049.5767 322.9118 5005677 118.5029 325.2585 05.56289645121646
Epoch (UTC): 26 November 2014 00:46:00
Eccentricity: 0.5005677
inclination: 49.5767°
perigee height: 341 km
apogee height: 13811 km
right ascension of ascending node: 322.9118°
argument of perigee: 118.5029°
revolutions per day: 5.56289645
mean anomaly at epoch: 325.2585°
orbit number at epoch: 12164

The dashed part of the orbit path shows where the satellite is in the earth's shadow,  

DLR